Skip Navigation Links
NOAA logo - Click to go to the NOAA homepage
NOAA's National Weather Service
Alaska Aviation Weather Unit
  NWS logo - Click to go to the NWS homepage
Left Navbar Graphic     08 AKDT = 16 GMT

   
NOAA is celebrating 200 years of science, service, and stewardship. Visit the NOAA 200th celebration Web site to learn more.
USA.gov is the U.S. Government's official Web portal to all Federal, state and local government Web resources and services.
Facebook
NWS on Facebook

Important Change Regarding the AAWU Web Presence

 

Over the last several months, the AAWU has been working to navigate its webpages to a nationally supported server. Security, as well as other needs, have necessitated the change.  In the process, we have made an effort to enhance the functionality of our website, as well as some of our products. As of June 20, 2017, aawu.arh.noaa.gov will be discontinued. The new AAWU web address is weather.gov/aawu. It is now live and will run in-parallel with the old site until it is discontinued. Please send any feedback or questions regarding the new webpages to nws.ar.aawu.webauthors@noaa.gov.  Thank you for your patience during this time of transition.
AAWU Home :: Display TAF Add Bookmark
TAF PAOM 291124Z 2912/3012 36008KT P6SM FEW050 SCT100 BKN200
     FM291800 33012KT P6SM FEW050 SCT100 BKN200
     FM292100 30012KT P6SM SCT050 BKN100 BKN200=

METAR PAOM 291053Z 35008KT 10SM FEW050 FEW200 03/01 A2987= METAR PAOM 291153Z 36009KT 10SM FEW060 FEW200 05/01 A2987= METAR PAOM 291253Z 35009KT 10SM FEW060 FEW200 03/01 A2987= METAR PAOM 291353Z 35010KT 10SM FEW033 FEW060 03/01 A2986= METAR PAOM 291453Z 34007KT 10SM FEW033 FEW060 04/01 A2986= METAR PAOM 291553Z 35007KT 10SM CLR 06/02 A2986=
 Alaska TAF Map

NOAA's National Weather Service
Alaska Aviation Weather Unit
6930 Sand Lake Road
Anchorage, AK 99502-1845
Disclaimer
Credits
Glossary
Privacy Policy
About Us
Career Opportunities
Contact AAWU Internet Services Site last modified: April, 17th 2012